When you browse on this site, cookies collect data to enhance your experience and personalize the content and advertising you see.
Visit our Privacy Policy to learn more. By continuing to use the site, you agree to this use of cookies and data.
  • In Czech Republic
  • List of Countries
  • For 7 days
  • Water Temperature
  • Weather Map
  • Weather Widgets
  • user-avatar
    Login

    Hourly Weather Brno

    Today, 2 June, Tuesday

    Time Temperature Precipitation Wind Pressure Humidity
    00:00 +9°C° 0 mm 2 mps 743 mmHg 88%
    01:00 +9°C° 0 mm 2 mps 743 mmHg 91%
    02:00 +8°C° 0 mm 2 mps 743 mmHg 91%
    03:00 +8°C° 0 mm 2 mps 743 mmHg 92%
    04:00 +8°C° 0 mm 2 mps 742 mmHg 92%
    05:00 +10°C° 0 mm 3 mps 742 mmHg 85%
    06:00 +12°C° 0 mm 4 mps 742 mmHg 78%
    07:00 +14°C° 0 mm 5 mps 742 mmHg 70%
    08:00 +15°C° 0.1 mm 5 mps 742 mmHg 66%
    09:00 +16°C° 0.1 mm 6 mps 742 mmHg 62%
    10:00 +17°C° 0.1 mm 6 mps 742 mmHg 58%
    11:00 +17°C° 0 mm 6 mps 742 mmHg 57%
    12:00 +19°C° 0 mm 6 mps 741 mmHg 55%
    13:00 +19°C° 0 mm 6 mps 741 mmHg 54%
    14:00 +19°C° 0 mm 6 mps 741 mmHg 55%
    15:00 +19°C° 0 mm 6 mps 740 mmHg 56%
    16:00 +19°C° 0 mm 6 mps 740 mmHg 57%
    17:00 +17°C° 0 mm 5 mps 739 mmHg 63%
    18:00 +17°C° 0 mm 4 mps 739 mmHg 70%
    19:00 +14°C° 0 mm 3 mps 739 mmHg 77%
    20:00 +14°C° 0 mm 2 mps 739 mmHg 81%
    21:00 +13°C° 0 mm 2 mps 739 mmHg 84%
    22:00 +12°C° 0 mm 1 mps 739 mmHg 88%
    23:00 +12°C° 0.2 mm 1 mps 738 mmHg 89%

    Tomorrow, 3 June, Wednesday

    Time Temperature Precipitation Wind Pressure Humidity
    00:00 +12°C° 0.2 mm 1 mps 738 mmHg 91%
    01:00 +11°C° 0.2 mm 1 mps 737 mmHg 93%
    02:00 +11°C° 0 mm 1 mps 737 mmHg 94%
    03:00 +11°C° 0 mm 1 mps 737 mmHg 94%
    04:00 +10°C° 0 mm 1 mps 736 mmHg 95%
    05:00 +12°C° 0 mm 2 mps 736 mmHg 92%
    06:00 +14°C° 0 mm 2 mps 736 mmHg 89%
    07:00 +15°C° 0 mm 2 mps 736 mmHg 86%
    08:00 +17°C° 0.7 mm 3 mps 735 mmHg 82%
    09:00 +18°C° 0.7 mm 3 mps 735 mmHg 79%
    10:00 +19°C° 0.7 mm 4 mps 735 mmHg 75%
    11:00 +19°C° 1.2 mm 4 mps 735 mmHg 74%
    12:00 +20°C° 1.2 mm 4 mps 734 mmHg 74%
    13:00 +20°C° 1.2 mm 3 mps 734 mmHg 74%
    14:00 +20°C° 1.4 mm 3 mps 734 mmHg 74%
    15:00 +20°C° 1.4 mm 2 mps 733 mmHg 75%
    16:00 +20°C° 1.4 mm 2 mps 733 mmHg 76%
    17:00 +20°C° 0.8 mm 1 mps 733 mmHg 78%
    18:00 +19°C° 0.8 mm 1 mps 733 mmHg 81%
    19:00 +16°C° 0.8 mm 0 mps 732 mmHg 84%
    20:00 +14°C° 0 mm 0 mps 732 mmHg 86%
    21:00 +13°C° 0 mm 0 mps 732 mmHg 87%
    22:00 +13°C° 0 mm 1 mps 732 mmHg 88%
    23:00 +12°C° 0 mm 1 mps 732 mmHg 88%

    Day after tomorrow, 4 June, Thursday

    Time Temperature Precipitation Wind Pressure Humidity
    00:00 +12°C° 0 mm 1 mps 732 mmHg 88%
    01:00 +11°C° 0 mm 1 mps 731 mmHg 88%
    02:00 +11°C° 0 mm 1 mps 731 mmHg 88%
    03:00 +10°C° 0 mm 1 mps 731 mmHg 88%
    04:00 +10°C° 0 mm 1 mps 730 mmHg 88%
    05:00 +11°C° 0 mm 1 mps 730 mmHg 85%
    06:00 +13°C° 0 mm 1 mps 730 mmHg 82%
    07:00 +14°C° 0 mm 1 mps 730 mmHg 80%
    08:00 +16°C° 0 mm 2 mps 730 mmHg 77%
    09:00 +18°C° 0 mm 2 mps 730 mmHg 74%
    10:00 +19°C° 0 mm 3 mps 729 mmHg 71%
    11:00 +20°C° 0 mm 3 mps 729 mmHg 71%
    12:00 +20°C° 0 mm 3 mps 729 mmHg 72%
    13:00 +20°C° 0 mm 3 mps 728 mmHg 72%
    14:00 +21°C° 0 mm 3 mps 728 mmHg 73%
    15:00 +21°C° 0 mm 4 mps 727 mmHg 73%
    16:00 +21°C° 0 mm 4 mps 727 mmHg 74%
    17:00 +20°C° 0.2 mm 4 mps 726 mmHg 79%
    18:00 +20°C° 0.2 mm 4 mps 726 mmHg 83%
    19:00 +19°C° 0.2 mm 3 mps 725 mmHg 88%
    20:00 +18°C° 0.2 mm 3 mps 725 mmHg 90%
    21:00 +17°C° 0.2 mm 3 mps 725 mmHg 91%
    22:00 +16°C° 0.2 mm 3 mps 725 mmHg 92%
    23:00 +14°C° 0 mm 3 mps 725 mmHg 93%

    5 June, Friday

    Time Temperature Precipitation Wind Pressure Humidity
    00:00 +14°C° 0 mm 2 mps 725 mmHg 94%
    01:00 +14°C° 0 mm 2 mps 725 mmHg 95%
    02:00 +14°C° 0.1 mm 2 mps 725 mmHg 94%
    03:00 +13°C° 0.1 mm 3 mps 725 mmHg 94%
    04:00 +13°C° 0.1 mm 3 mps 725 mmHg 93%
    05:00 +13°C° 0 mm 3 mps 725 mmHg 93%
    06:00 +14°C° 0 mm 2 mps 725 mmHg 92%
    07:00 +14°C° 0 mm 2 mps 726 mmHg 91%
    08:00 +14°C° 0.4 mm 2 mps 726 mmHg 93%
    09:00 +14°C° 0.4 mm 2 mps 726 mmHg 94%
    10:00 +14°C° 0.4 mm 2 mps 726 mmHg 95%
    11:00 +14°C° 0.2 mm 2 mps 727 mmHg 94%
    12:00 +13°C° 0.2 mm 3 mps 727 mmHg 93%
    13:00 +14°C° 0.2 mm 3 mps 727 mmHg 91%
    14:00 +13°C° 0.3 mm 4 mps 728 mmHg 91%
    15:00 +12°C° 0.3 mm 4 mps 728 mmHg 90%
    16:00 +10°C° 0.3 mm 5 mps 728 mmHg 90%
    17:00 +11°C° 0.1 mm 4 mps 729 mmHg 90%
    18:00 +11°C° 0.1 mm 4 mps 729 mmHg 90%
    19:00 +10°C° 0.1 mm 3 mps 729 mmHg 89%
    20:00 +10°C° 0 mm 3 mps 730 mmHg 90%
    21:00 +10°C° 0 mm 2 mps 731 mmHg 90%
    22:00 +10°C° 0 mm 2 mps 731 mmHg 91%
    23:00 +10°C° 0 mm 2 mps 731 mmHg 91%

    6 June, Saturday

    Time Temperature Precipitation Wind Pressure Humidity
    00:00 +9°C° 0 mm 2 mps 732 mmHg 91%
    01:00 +9°C° 0 mm 2 mps 732 mmHg 91%
    02:00 +9°C° 0 mm 2 mps 732 mmHg 89%
    03:00 +9°C° 0 mm 2 mps 733 mmHg 88%
    04:00 +9°C° 0 mm 2 mps 733 mmHg 86%
    05:00 +10°C° 0 mm 3 mps 733 mmHg 82%
    06:00 +11°C° 0 mm 4 mps 734 mmHg 78%
    07:00 +12°C° 0 mm 5 mps 734 mmHg 73%
    08:00 +14°C° 0 mm 5 mps 735 mmHg 68%
    09:00 +15°C° 0 mm 5 mps 735 mmHg 62%
    10:00 +16°C° 0 mm 5 mps 735 mmHg 57%
    11:00 +17°C° 0 mm 5 mps 735 mmHg 54%
    12:00 +17°C° 0 mm 5 mps 735 mmHg 52%
    13:00 +19°C° 0 mm 5 mps 735 mmHg 50%
    14:00 +19°C° 0.1 mm 5 mps 735 mmHg 54%
    15:00 +17°C° 0.1 mm 5 mps 735 mmHg 58%
    16:00 +17°C° 0.1 mm 5 mps 735 mmHg 62%
    17:00 +17°C° 0 mm 4 mps 735 mmHg 67%
    18:00 +16°C° 0 mm 3 mps 735 mmHg 73%
    19:00 +15°C° 0 mm 2 mps 735 mmHg 78%
    20:00 +15°C° 0 mm 2 mps 736 mmHg 79%
    21:00 +14°C° 0 mm 1 mps 736 mmHg 80%
    22:00 +14°C° 0 mm 1 mps 736 mmHg 81%
    23:00 +14°C° 0 mm 1 mps 736 mmHg 80%

    7 June, Sunday

    Time Temperature Precipitation Wind Pressure Humidity
    00:00 +14°C° 0 mm 1 mps 736 mmHg 80%
    01:00 +14°C° 0 mm 1 mps 736 mmHg 80%
    02:00 +14°C° 0 mm 1 mps 736 mmHg 79%
    03:00 +14°C° 0 mm 1 mps 736 mmHg 78%
    04:00 +14°C° 0 mm 1 mps 736 mmHg 78%
    05:00 +15°C° 0 mm 1 mps 736 mmHg 76%
    06:00 +15°C° 0 mm 2 mps 736 mmHg 75%
    07:00 +16°C° 0 mm 2 mps 736 mmHg 73%
    08:00 +18°C° 0 mm 2 mps 736 mmHg 70%
    09:00 +19°C° 0 mm 2 mps 736 mmHg 67%
    10:00 +20°C° 0 mm 2 mps 736 mmHg 65%
    11:00 +21°C° 0 mm 3 mps 736 mmHg 63%
    12:00 +22°C° 0 mm 4 mps 736 mmHg 62%
    13:00 +23°C° 0 mm 4 mps 736 mmHg 61%
    14:00 +23°C° 0.1 mm 4 mps 735 mmHg 61%
    15:00 +24°C° 0.1 mm 3 mps 735 mmHg 61%
    16:00 +24°C° 0.1 mm 3 mps 735 mmHg 61%
    17:00 +21°C° 0.3 mm 3 mps 736 mmHg 68%
    18:00 +20°C° 0.3 mm 2 mps 736 mmHg 76%
    19:00 +19°C° 0.3 mm 2 mps 736 mmHg 83%
    20:00 +17°C° 0.3 mm 2 mps 736 mmHg 86%
    21:00 +16°C° 0.3 mm 2 mps 737 mmHg 90%
    22:00 +15°C° 0.3 mm 2 mps 737 mmHg 93%
    23:00 +14°C° 0.1 mm 2 mps 737 mmHg 93%
    Show more